Weather in Ivanovo

Russia / Saint-Petersburg and Leningrad Oblast     60°31′32″N   30°11′22″E
temp.,
°C
wind,
m/s
gust,
m/s
humid.,
%
clouds,
%
prec.,
mm/h
press.,
hPa
HPBL,
m
14 june, mon
mon1400:00+13wnw2692100 0.0 1010266
03:00+10wnw24970 0.0 101293
06:00+12wnw258647 0.0 1013132
09:00+17w3455100 0.0 1014862
12:00+19w453782 0.0 10151816
15:00+20wsw4532100 0.0 10151742
18:00+18wsw4539100 0.0 10151079
21:00+14ssw2560100 0.0 1014111
15 june, tue
tue1500:00+11s39545 0.0 1013153
03:00+11ssw3127399 0.0 1011278
06:00+13ssw51562100 0.0 1008651
09:00+17sw61355100 0.0 10061034
12:00+13sw51294100 0.8 1008902
15:00+18wsw61252100 0.9 10071661
18:00+18w5851100 0.0 10081674
21:00+14wsw410655 0.0 1009636
16 june, wed
wed1600:00+10w310850 0.0 1011230
03:00+10wnw412740 0.0 1013380
06:00+11w311680 0.0 1014469
09:00+16w49466 0.0 10151308
12:00+19w61143100 0.0 10162081
15:00+20w5943100 0.0 10162034
18:00+20w594544 0.0 10162011
21:00+16wsw49555 0.0 1017505
17 june, thu
thu1700:00+11wsw412775 0.0 1018300
03:00+10wsw310845 0.0 1020224
06:00+12wsw3107888 0.0 1021360
09:00+18w46505 0.0 1022792
12:00+22w34395 0.0 10221448
15:00+23wsw453596 0.0 10221611
18:00+21wsw453760 0.0 1022965
21:00+16sw24593 0.0 102270
18 june, fri
fri1800:00+13sw26650 0.0 102397
03:00+12wsw25675 0.0 102375
06:00+14wsw266618 0.0 1023165
09:00+20sw3746100 0.0 1023609
12:00+24wsw47312 0.0 10221329
15:00+25wsw58350 0.0 10221682
18:00+25wsw49410 0.0 10211553
21:00+20wsw25650 0.0 1021102